Home   Weather   Oslo   Past weeks
Flag for Norway

Past Weather in Oslo, Norway — Yesterday and Last 2 Weeks

Now
22 °F

Light snow. Low clouds.


Feels Like: 18 °F
Forecast: 21 / 14 °F
Wind: 3 mph from Northeast

Location: Oslo-Blindern

Current Time: Jan 21, 2019 at 8:52:00 am

Latest Report: Jan 21, 2019 at 7:00 am


Visibility: 6 mi

Pressure: 29.90 "Hg

Humidity: 83%

Dew Point: 18 °F

Location of OsloLocation

Past Weather in Oslo — Graph

°F

Oslo Temperature Yesterday

Maximum temperature yesterday: 26 °F (at 1:00 pm)
Minimum temperature yesterday: 15 °F (at 9:00 am)
Average temperature yesterday: 21 °F

High & Low Weather Summary for the Past Weeks

 TemperatureHumidityPressure
High42 °F (Jan 11, 1:00 pm)97% (Jan 6, 8:00 am)30.28 "Hg (Jan 6, 8:00 am)
Low15 °F (Jan 20, 9:00 am)37% (Jan 14, 10:00 am)28.85 "Hg (Jan 13, 1:00 pm)
Average27 °F77%29.69 "Hg
* Reported Jan 6 7:00 am — Jan 21 7:00 am, Oslo. Weather by CustomWeather, © 2019

Note: Actual official high and low records may vary slightly from our data, if they occured in-between our weather recording intervals... More about our weather records

Advertising

Oslo Weather History for the Previous 24 Hours

Scroll right to see more
 ConditionsComfort  
Time TempWeatherWind HumidityBarometerVisibility
7:00 am
Mon, Jan 21
22 °FLight snow. Low clouds.3 mph83%29.90 "Hg6 mi
6:00 am22 °FLight snow. Overcast.5 mph84%29.90 "Hg3 mi
5:00 am22 °FLight snow. Overcast.3 mph86%29.91 "Hg2 mi
4:00 am22 °FLight snow. Overcast.2 mph86%29.92 "Hg1 mi
3:00 am22 °FCold.3 mph82%29.93 "Hg31 mi
2:00 am22 °FCold.2 mph85%29.95 "Hg31 mi
1:00 am22 °FCold.2 mph86%29.96 "Hg25 mi
12:00 am24 °FSnow flurries. Overcast.2 mph87%29.98 "Hg28 mi
11:00 pm
Sun, Jan 20
23 °FCold.2 mph87%29.99 "Hg25 mi
10:00 pmN/ALow clouds.N/AN/AN/A3 mi
9:00 pm22 °FLight snow. Overcast.1 mph87%30.02 "Hg1 mi
8:00 pm22 °FLight snow. Overcast.3 mph80%30.03 "Hg4 mi
7:00 pm21 °FLight snow. Overcast.2 mph78%30.03 "Hg7 mi
6:00 pm21 °FCold.1 mph79%30.04 "Hg6 mi
5:00 pm23 °FCold.1 mph76%30.05 "Hg12 mi
4:00 pm24 °FOvercast.1 mph74%30.06 "Hg31 mi
3:00 pm24 °FCold.1 mph75%30.07 "Hg17 mi
2:00 pm25 °FChilly.1 mph66%30.07 "Hg15 mi
1:00 pm26 °FFog.No wind68%30.07 "Hg5 mi
12:00 pm25 °FCold.1 mph71%30.08 "Hg19 mi
11:00 am20 °FCold.No wind77%30.08 "Hg28 mi
10:00 am15 °FPassing clouds.No wind83%30.07 "Hg9 mi
9:00 am15 °FCold.1 mph84%30.06 "Hg31 mi
8:00 am15 °FCold.1 mph84%30.04 "Hg31 mi
Weather by CustomWeather, © 2019

See weather overview

LIVE TOTAL LUNAR ECLIPSE – Watch the eclipse as it happens